Wind_Speed
10 9 8 5 6 5 6 6 5 4 6 6 5 5 5 5 6 7 8 9 9 9 10 11 11 11 11 13 13 12 13 12 12 12 11 9 8 8 8 9 9 9 7
11 10 8 9 7 6 6 5 4 3 4 5 4 4 4 4 4 5 6 6 7 9 10 11 10 11 13 12 12 12 14 11 11 12 10 9 7 8 9 8 9 10 10
9 8 10 15 10 8 4 4 3 5 7 5 4 6 4 3 2 5 5 4 6 9 10 11 10 11 12 10 11 12 12 10 10 12 11 10 8 7 7 8 10 11 11
6 5 4 7 11 7 4 5 4 8 9 6 5 5 5 3 2 4 3 3 6 9 9 10 11 12 11 11 11 11 10 8 12 13 12 13 12 8 8 8 10 11 12
7 9 5 7 8 8 7 5 4 7 8 7 7 7 6 3 3 3 3 4 7 9 10 13 13 11 12 13 10 9 9 12 14 14 15 14 13 10 9 11 11 11 13
10 9 8 8 13 9 9 7 7 5 9 9 8 8 7 4 3 4 3 4 8 10 14 14 12 12 14 13 10 12 15 16 15 15 15 13 13 11 12 13 13 15 15
8 10 9 8 17 13 8 7 8 5 7 9 7 8 7 5 5 4 3 6 9 13 15 12 12 16 14 15 13 17 18 18 18 15 15 14 15 14 13 13 15 17 17
8 8 8 12 14 13 9 9 10 6 8 10 11 10 7 6 5 5 5 8 10 13 11 12 15 18 15 15 16 19 20 20 17 16 15 15 16 17 14 16 16 17 18
8 11 4 17 15 12 9 9 10 8 10 10 11 10 7 6 6 6 8 9 11 11 11 13 15 15 15 16 17 19 20 19 19 18 17 17 18 18 16 17 18 18 17
5 7 7 11 15 11 10 10 10 10 10 11 11 10 10 9 8 7 11 10 10 11 12 12 15 16 15 17 18 19 19 21 21 20 19 19 19 19 18 17 18 19 19
6 7 7 10 10 10 10 10 9 9 9 13 10 11 13 12 11 9 13 12 9 10 11 13 15 14 15 17 19 18 20 20 19 21 22 21 20 20 20 20 20 20 21
7 8 9 9 12 12 11 9 10 10 10 9 10 10 8 8 7 10 14 12 8 7 10 12 13 12 14 15 17 18 18 19 19 22 24 23 21 21 21 22 22 22 22
5 8 9 9 11 12 12 11 11 11 12 14 11 8 8 8 5 12 15 13 9 5 10 7 12 9 12 16 17 15 15 17 18 21 23 24 22 22 22 23 22 22 23
7 9 9 8 8 9 10 15 14 14 14 14 10 8 12 10 7 14 17 13 8 5 8 11 11 6 11 14 12 12 13 15 15 18 21 20 18 18 17 18 19 20 21
11 9 5 6 6 2 4 11 19 16 17 18 11 15 8 9 9 17 19 13 9 5 4 8 8 8 11 12 10 7 15 11 13 16 17 16 15 14 12 13 15 15 16
11 9 9 10 10 5 6 5 13 15 9 12 12 6 12 10 12 18 19 14 9 5 3 4 6 7 10 11 10 9 11 10 10 12 13 14 13 14 13 13 13 11 11
10 9 8 8 5 0 3 12 18 11 10 10 17 15 13 14 17 17 19 15 11 6 2 1 5 6 6 7 9 8 8 7 6 7 10 10 10 10 12 13 14 11 10
13 10 8 8 7 7 7 7 8 10 11 12 15 11 13 16 15 15 17 16 13 8 2 1 4 5 5 4 7 6 7 5 4 3 3 6 6 7 9 11 12 13 11
11 9 8 7 7 9 9 7 8 10 12 11 11 12 15 14 12 10 12 14 11 8 6 1 3 4 4 1 3 2 4 3 3 3 2 1 4 3 7 9 12 13 12
10 7 8 9 8 10 8 7 7 8 10 10 11 13 11 11 11 10 10 13 12 8 6 5 3 3 5 2 1 2 2 2 1 1 3 2 3 3 6 8 11 12 11
10 8 7 10 9 8 6 7 7 8 10 10 9 9 6 7 10 15 14 10 13 11 8 5 6 7 6 4 2 3 4 2 4 3 2 3 4 5 6 8 9 10 10
7 7 7 8 7 7 8 6 6 10 9 9 9 9 10 5 8 16 15 16 15 14 12 8 7 7 9 9 6 7 0 1 3 3 3 3 4 5 5 5 6 8 10
7 10 9 8 7 8 9 9 10 11 11 12 13 12 11 9 7 11 11 16 19 18 16 11 10 10 9 7 6 4 2 2 3 3 6 7 3 2 3 3 5 8 7
10 10 11 9 9 9 10 13 14 14 12 11 9 8 8 7 7 6 11 13 20 20 18 15 14 11 9 8 5 2 3 2 1 1 6 5 2 2 1 4 5 5 4
8 10 13 10 11 10 11 12 15 16 16 13 11 9 8 7 9 9 5 11 14 20 18 16 16 14 12 9 7 5 6 6 4 5 2 5 2 0 4 9 9 4 5
9 9 13 10 11 11 10 11 15 16 16 15 14 12 12 11 12 13 11 10 11 16 20 19 16 15 10 13 10 8 3 6 4 3 4 4 3 2 2 5 9 7 6
Wind_Direction
190 196 202 207 160 142 116 112 107 87 89 87 80 84 69 45 26 50 58 57 64 69 66 58 51 48 46 51 59 65 70 67 62 68 68 63 53 61 77 94 110 122 135
198 200 194 178 174 151 128 132 121 141 117 104 96 97 89 64 30 57 59 57 62 71 61 54 51 55 51 53 62 64 64 65 64 67 68 66 66 70 83 94 119 121 123
190 203 213 192 177 172 150 158 122 161 157 134 127 120 115 92 60 63 70 54 64 64 53 51 57 57 54 57 64 63 63 64 74 74 65 57 71 87 95 97 109 121 128
171 164 234 201 160 178 160 161 126 166 169 152 142 136 141 125 98 79 98 72 81 69 55 54 52 51 58 55 49 60 59 67 76 67 64 59 62 78 101 114 109 113 114
191 183 204 192 174 176 175 173 147 173 188 166 162 160 151 148 104 89 84 77 78 64 53 48 47 49 56 56 54 69 77 73 69 67 60 57 60 66 92 114 117 106 121
209 196 216 214 179 180 174 183 172 181 191 181 174 158 163 151 114 100 102 98 75 59 52 49 54 65 63 53 67 67 63 65 66 63 64 68 70 77 86 109 104 103 114
200 202 202 186 182 161 181 180 187 208 192 180 173 167 166 152 126 122 103 95 68 62 61 60 54 61 55 50 55 61 62 59 59 58 69 77 79 85 92 106 109 105 114
174 183 216 181 160 161 184 177 181 199 185 182 180 175 166 153 135 120 105 88 77 75 76 66 67 65 59 61 63 67 68 64 61 64 71 74 84 85 89 97 105 109 109
187 190 197 172 170 168 174 196 184 183 170 175 181 184 179 169 154 136 116 102 94 94 79 82 69 68 62 66 70 70 71 74 74 68 68 70 75 84 88 95 97 99 104
149 180 176 173 172 182 183 194 202 187 185 195 203 196 192 182 167 148 115 122 117 107 91 85 68 59 62 69 69 69 74 73 75 76 71 72 74 76 83 87 95 99 101
170 180 187 186 190 183 187 201 204 190 200 207 210 218 200 204 170 159 128 141 129 117 97 88 76 68 68 74 74 76 78 77 76 77 78 75 75 76 80 83 88 92 94
140 188 186 177 184 176 179 200 217 216 213 210 201 217 211 232 177 160 139 146 148 119 93 100 84 68 73 76 75 75 72 76 76 77 76 74 73 78 80 84 86 89 90
171 144 172 182 174 184 201 216 229 221 219 208 214 199 228 235 212 152 145 155 171 105 84 82 75 58 68 75 72 77 86 84 82 82 81 79 75 72 75 80 83 85 86
182 161 168 173 174 191 216 215 220 225 210 235 238 226 220 220 196 162 152 170 174 129 100 79 84 65 67 62 73 76 81 86 87 85 82 76 75 71 70 73 77 83 85
148 158 153 196 207 235 297 216 211 221 226 237 218 231 231 213 173 148 153 171 179 176 133 103 86 72 71 73 64 47 79 83 92 86 80 73 62 64 59 59 68 74 82
194 186 162 130 137 72 42 145 199 193 192 227 208 204 201 200 187 151 154 169 176 205 207 131 93 72 75 71 58 50 46 64 67 87 83 75 57 54 53 53 49 59 74
180 170 170 165 166 158 125 136 152 156 198 194 197 221 163 172 172 156 155 167 173 192 241 144 94 67 69 93 76 70 64 69 80 92 94 77 62 50 47 49 49 49 55
173 167 183 176 170 155 155 156 152 167 155 162 164 157 185 167 170 164 162 172 168 167 229 142 121 95 81 100 91 72 72 85 111 96 78 90 87 57 49 48 46 52 53
166 169 174 182 153 144 145 126 140 153 148 157 178 164 160 163 163 176 182 169 175 168 183 189 143 126 134 107 96 118 104 82 111 127 117 71 115 85 58 47 40 47 52
182 201 201 182 168 182 177 159 163 165 164 172 174 175 165 174 167 187 209 181 179 186 198 182 154 170 162 111 215 128 130 207 228 151 138 125 144 107 61 45 39 40 41
193 190 202 186 179 185 199 171 177 200 185 180 178 181 196 223 217 202 213 216 190 191 210 198 188 183 176 170 114 190 227 244 309 269 198 142 132 92 64 52 41 37 42
201 191 177 183 186 185 194 182 180 194 206 207 199 209 212 205 209 215 214 210 195 202 211 202 204 190 191 198 191 203 150 344 333 239 215 206 146 110 83 55 29 34 35
190 200 178 177 189 187 199 189 194 185 196 202 203 211 223 216 218 228 252 232 214 199 211 210 208 199 208 205 211 216 252 12 0 241 255 267 167 121 84 55 28 6 24
188 192 186 192 202 178 197 203 206 224 232 228 233 226 223 234 239 244 259 236 206 205 210 202 202 192 205 208 229 230 338 280 141 205 243 248 246 239 32 14 358 5 347
204 215 211 191 200 193 191 209 216 211 226 221 231 237 237 237 242 253 260 241 216 203 215 214 213 224 211 204 219 228 293 267 183 205 198 211 276 60 311 330 332 265 303
240 244 213 194 187 200 201 210 226 215 215 226 224 232 240 239 223 228 218 209 182 201 218 221 215 216 226 223 224 225 206 196 203 197 195 202 194 116 319 330 322 278 292
Height
5891 5893 5893 5895 5897 5899 5900 5900 5902 5903 5902 5902 5901 5901 5902 5901 5901 5901 5900 5902 5902 5903 5903 5902 5901 5900 5899 5899 5898 5898 5898 5899 5898 5894 5894 5894 5893 5893 5892 5891 5891 5892 5894
5890 5892 5893 5894 5897 5899 5900 5901 5902 5903 5903 5902 5902 5903 5903 5902 5903 5904 5905 5905 5905 5904 5905 5904 5903 5902 5901 5901 5900 5899 5898 5900 5898 5897 5896 5896 5896 5895 5893 5893 5893 5893 5894
5889 5890 5892 5892 5896 5898 5899 5900 5901 5902 5903 5903 5904 5904 5904 5904 5906 5906 5908 5907 5906 5906 5906 5906 5905 5903 5902 5903 5901 5900 5899 5899 5899 5899 5898 5897 5896 5895 5894 5895 5895 5894 5894
5889 5890 5891 5889 5893 5896 5899 5899 5900 5901 5902 5903 5905 5905 5905 5906 5907 5909 5909 5909 5908 5908 5907 5907 5906 5905 5905 5904 5904 5902 5902 5901 5900 5898 5897 5896 5895 5895 5895 5895 5896 5895 5895
5889 5891 5891 5891 5893 5896 5899 5900 5900 5900 5901 5903 5905 5905 5906 5907 5909 5911 5910 5910 5910 5909 5909 5909 5908 5908 5907 5906 5906 5906 5905 5903 5901 5899 5896 5895 5895 5896 5896 5895 5896 5895 5896
5888 5889 5890 5891 5894 5896 5899 5900 5900 5900 5901 5903 5904 5906 5907 5908 5910 5911 5910 5911 5911 5911 5911 5911 5911 5910 5910 5910 5908 5907 5906 5905 5903 5901 5899 5897 5896 5896 5896 5896 5896 5896 5897
5887 5888 5889 5891 5892 5895 5897 5899 5900 5901 5902 5903 5904 5905 5907 5909 5910 5910 5911 5913 5913 5913 5913 5914 5913 5910 5911 5911 5910 5907 5906 5905 5905 5904 5902 5901 5899 5898 5898 5897 5897 5897 5898
5887 5888 5889 5891 5892 5893 5897 5898 5898 5901 5902 5904 5905 5906 5908 5910 5911 5912 5914 5916 5916 5916 5915 5915 5914 5912 5912 5912 5911 5909 5908 5908 5908 5908 5907 5905 5903 5901 5901 5900 5899 5899 5899
5887 5888 5889 5890 5892 5894 5896 5897 5893 5900 5902 5904 5905 5907 5910 5911 5911 5913 5915 5917 5918 5918 5917 5917 5916 5915 5914 5913 5913 5911 5910 5910 5910 5910 5910 5909 5907 5905 5905 5903 5902 5902 5902
5888 5888 5889 5891 5892 5894 5896 5897 5898 5901 5903 5904 5905 5907 5908 5910 5911 5913 5917 5919 5919 5919 5919 5919 5918 5918 5918 5917 5916 5915 5915 5914 5912 5912 5912 5912 5911 5910 5909 5908 5906 5906 5905
5888 5889 5890 5891 5893 5895 5896 5898 5900 5902 5904 5904 5906 5907 5905 5908 5911 5914 5918 5920 5922 5922 5921 5921 5920 5921 5921 5922 5920 5919 5918 5918 5918 5918 5916 5916 5915 5915 5914 5913 5912 5910 5909
5888 5889 5890 5891 5893 5894 5896 5897 5898 5900 5903 5904 5906 5906 5907 5909 5912 5914 5919 5923 5924 5924 5924 5924 5924 5926 5925 5926 5925 5925 5924 5924 5924 5924 5923 5921 5921 5920 5919 5917 5916 5915 5913
5888 5889 5889 5890 5892 5894 5896 5897 5898 5900 5901 5903 5906 5908 5909 5909 5912 5915 5920 5924 5925 5927 5926 5927 5928 5930 5929 5929 5929 5928 5927 5928 5927 5928 5927 5925 5926 5927 5926 5922 5922 5920 5917
5889 5890 5891 5890 5892 5893 5894 5894 5896 5899 5901 5903 5905 5908 5909 5911 5913 5915 5920 5925 5926 5929 5929 5930 5931 5932 5933 5933 5933 5932 5931 5932 5932 5932 5930 5929 5929 5929 5929 5928 5927 5923 5921
5889 5891 5891 5891 5892 5893 5891 5892 5896 5898 5900 5901 5904 5906 5908 5911 5914 5916 5919 5925 5928 5930 5932 5933 5933 5935 5935 5936 5936 5935 5934 5936 5935 5935 5935 5933 5933 5932 5932 5931 5929 5927 5925
5890 5891 5891 5891 5892 5892 5891 5890 5893 5897 5898 5900 5903 5905 5908 5911 5914 5916 5919 5925 5929 5930 5933 5934 5935 5937 5938 5937 5938 5937 5938 5938 5937 5937 5936 5936 5936 5936 5935 5933 5933 5931 5929
5890 5890 5891 5892 5893 5892 5893 5893 5893 5895 5898 5898 5900 5904 5907 5911 5914 5916 5919 5924 5929 5930 5933 5935 5936 5938 5940 5939 5939 5940 5940 5941 5940 5939 5938 5938 5938 5938 5937 5936 5935 5933 5933
5889 5890 5890 5891 5892 5892 5893 5894 5895 5896 5897 5899 5901 5904 5909 5912 5915 5917 5920 5923 5927 5929 5932 5935 5936 5938 5941 5941 5939 5940 5940 5941 5941 5941 5941 5939 5940 5940 5939 5939 5937 5935 5934
5888 5889 5890 5891 5892 5893 5894 5895 5897 5898 5899 5900 5903 5905 5909 5913 5915 5918 5921 5923 5927 5929 5931 5933 5936 5938 5940 5942 5941 5941 5940 5942 5941 5940 5941 5941 5940 5940 5939 5940 5939 5937 5936
5887 5888 5890 5890 5892 5894 5895 5896 5898 5899 5901 5902 5903 5906 5909 5912 5915 5919 5922 5924 5926 5929 5931 5933 5935 5937 5939 5941 5941 5942 5941 5942 5941 5941 5941 5941 5940 5940 5939 5939 5939 5938 5938
5884 5886 5889 5890 5890 5893 5894 5895 5897 5899 5900 5902 5905 5907 5909 5912 5914 5916 5920 5924 5926 5928 5932 5934 5935 5937 5939 5939 5940 5942 5942 5942 5941 5941 5942 5941 5941 5939 5939 5938 5938 5940 5939
5884 5885 5887 5890 5891 5892 5894 5896 5896 5898 5900 5902 5904 5907 5909 5911 5913 5916 5918 5922 5926 5929 5931 5934 5936 5937 5939 5940 5941 5943 5943 5943 5940 5939 5941 5941 5940 5939 5938 5937 5938 5938 5939
5885 5885 5886 5887 5889 5891 5894 5895 5896 5898 5900 5902 5904 5906 5907 5910 5913 5914 5915 5919 5924 5927 5931 5934 5935 5936 5938 5939 5940 5942 5941 5941 5940 5939 5940 5941 5940 5940 5939 5938 5937 5938 5938
5881 5883 5884 5887 5889 5889 5892 5894 5895 5896 5898 5899 5901 5904 5906 5909 5910 5912 5915 5916 5920 5924 5928 5931 5934 5933 5937 5938 5939 5940 5939 5939 5940 5940 5939 5939 5939 5939 5938 5937 5937 5938 5937
5878 5880 5883 5885 5888 5889 5889 5892 5894 5895 5896 5899 5901 5903 5904 5905 5908 5911 5913 5915 5917 5922 5926 5928 5931 5932 5933 5936 5937 5938 5938 5939 5938 5939 5938 5938 5938 5936 5937 5936 5936 5937 5938
5876 5877 5880 5883 5885 5888 5887 5889 5892 5893 5895 5898 5900 5901 5903 5905 5908 5910 5913 5916 5917 5921 5924 5927 5929 5930 5932 5932 5934 5935 5936 5937 5937 5938 5938 5937 5937 5936 5936 5936 5936 5937 5937